Theta_e
324 323 324 325 332 332 329 329 343 345 346 345 338 340 340 340 340 340 337 334 333 332 331 331 330 328 328 327 325 326 327 327 326 326 326 326 327 328 326 326 328 326 317
324 324 327 332 333 332 331 331 341 347 342 340 340 341 341 339 336 333 332 332 331 330 331 330 329 328 326 324 324 325 327 327 326 327 326 326 327 328 326 326 326 324 321
327 330 334 333 334 337 340 349 346 341 341 341 342 341 338 334 331 330 329 329 329 330 330 330 330 329 326 324 325 326 328 326 326 326 326 328 325 326 327 326 322 321 322
329 335 339 342 343 343 350 344 341 342 341 341 337 332 330 331 329 328 330 330 329 329 329 330 330 329 327 325 326 327 327 327 326 327 327 328 327 327 327 322 321 322 321
342 339 342 344 346 347 344 342 340 340 336 332 332 332 329 329 329 329 330 330 329 328 330 330 330 328 327 324 327 327 327 326 326 327 326 326 326 326 328 322 322 325 327
339 341 343 343 343 344 344 341 338 335 335 333 332 328 331 328 329 329 330 330 326 328 330 329 327 328 325 324 327 326 326 326 327 326 326 325 325 328 326 324 323 324 325
341 342 342 344 342 342 338 336 335 333 333 331 330 330 328 328 329 329 328 327 327 327 328 327 326 326 327 327 326 326 326 326 327 327 327 325 325 325 326 325 324 323 323
341 342 340 340 338 336 335 333 329 328 329 331 330 328 328 328 329 326 327 326 326 327 327 325 326 327 326 326 326 326 326 327 327 328 328 326 324 325 324 325 324 324 325
341 340 339 337 334 331 329 329 328 331 331 328 328 327 329 328 324 327 328 325 325 326 326 326 327 326 326 326 326 326 327 327 327 326 326 325 323 321 324 325 324 322 323
339 337 335 333 331 329 328 329 330 329 328 328 328 330 328 324 327 327 329 326 325 325 327 327 326 326 326 325 326 327 327 326 325 323 323 322 323 323 324 325 326 324 323
335 334 333 331 329 328 329 330 329 328 328 329 329 329 326 326 327 327 327 327 326 326 325 326 325 325 326 327 327 326 326 324 324 324 325 324 323 323 324 324 325 324 323
331 331 330 329 329 329 329 329 328 329 329 329 329 328 326 326 327 327 326 326 326 327 326 325 324 326 326 326 326 325 325 324 323 322 324 325 324 324 325 325 325 324 324
331 330 330 329 329 329 328 328 327 328 329 329 329 327 324 326 327 325 325 325 324 324 325 326 324 325 326 326 326 324 324 323 322 324 323 324 323 325 325 325 324 324 324
329 328 329 329 328 327 327 327 328 329 330 329 330 328 326 324 325 325 324 324 324 324 325 325 324 325 325 325 326 324 323 323 323 323 323 323 324 324 325 325 324 323 323
330 328 327 327 327 327 327 328 327 328 329 328 329 328 327 325 325 324 324 323 323 324 325 324 326 326 327 324 323 322 323 323 323 322 324 323 324 324 325 323 324 324 324
329 328 329 328 328 327 328 329 329 329 329 330 329 329 327 326 323 323 323 324 324 325 324 324 323 323 322 322 322 321 322 321 321 322 322 322 322 321 324 324 324 323 323
327 329 329 328 328 329 329 329 330 330 329 331 331 330 327 325 323 321 323 324 325 324 323 323 323 322 321 321 321 321 322 322 321 321 322 323 322 323 323 324 324 323 322
328 327 328 329 330 329 329 330 329 329 330 330 328 327 325 323 323 323 324 324 324 324 324 323 322 321 321 322 322 323 323 323 323 323 324 324 324 324 323 323 322 322 321
328 328 329 329 328 328 329 329 329 330 329 329 327 325 323 322 323 323 324 324 324 324 322 322 321 322 323 323 323 323 323 323 323 323 323 323 324 322 323 323 323 323 322
328 330 329 329 329 327 326 326 329 330 329 327 325 324 323 323 323 324 324 324 323 324 323 323 322 323 324 324 324 323 323 323 323 323 323 323 323 322 323 323 323 323 323
330 330 330 329 330 330 329 327 327 329 328 325 324 323 322 323 323 324 325 324 324 323 323 323 323 323 324 325 325 325 324 323 324 323 323 324 323 323 323 323 324 324 324
329 330 330 329 330 330 330 329 327 327 327 325 323 323 323 324 324 325 326 326 325 325 324 323 324 325 326 327 327 326 326 325 326 326 327 327 326 325 324 324 324 325 325
329 330 330 329 329 329 330 328 327 327 326 325 324 324 323 323 323 325 326 326 327 326 325 325 326 326 327 326 326 327 327 327 327 327 326 326 327 327 327 327 327 326 327
329 330 330 330 329 329 329 330 329 326 326 325 325 324 324 324 324 326 326 327 327 328 327 326 326 326 327 327 327 327 327 327 327 327 327 328 328 328 327 327 328 327 327
330 330 330 330 329 329 329 329 327 326 325 326 326 325 327 327 328 328 328 328 327 328 328 328 328 327 327 327 327 327 327 327 328 327 327 327 327 327 326 326 326 325 324
329 329 329 329 329 329 329 328 327 329 328 327 328 328 328 327 327 326 325 324 324 324 325 325 325 324 324 325 325 325 325 325 325 325 324 324 324 325 323 322 321 318 315
Wind_Speed
37 34 36 32 30 31 27 24 23 24 23 22 19 21 22 22 18 16 13 13 13 15 15 15 13 14 14 16 16 15 13 11 9 9 10 12 12 15 16 16 14 17 17
36 35 28 29 29 28 25 23 23 22 20 21 22 21 19 18 15 10 8 11 14 14 15 15 14 15 15 15 15 14 13 11 11 10 13 15 16 19 19 16 17 17 16
27 28 27 26 26 25 23 24 22 22 22 22 21 21 20 15 11 11 10 10 12 13 15 16 15 16 15 15 13 13 13 12 12 13 18 16 17 18 20 20 19 17 17
29 27 24 25 26 27 27 26 26 24 22 23 21 16 12 12 10 9 9 8 10 11 14 15 16 16 17 16 14 14 15 13 15 17 21 19 18 15 16 20 20 19 19
29 22 25 28 26 29 27 27 26 26 24 20 20 17 14 15 11 10 10 10 11 14 15 15 17 16 15 16 14 18 16 15 20 22 23 21 19 18 19 21 21 20 18
26 27 28 29 29 31 32 30 27 24 23 21 18 16 16 11 11 12 12 12 12 11 10 12 13 14 14 16 15 18 15 17 22 24 25 25 23 22 20 22 25 23 21
30 30 32 33 30 29 29 28 28 26 22 19 19 18 12 12 13 12 11 8 7 8 11 10 12 12 11 13 17 16 13 12 13 19 22 24 24 24 25 24 28 27 25
34 36 30 32 33 32 29 26 22 24 23 23 18 13 13 13 11 9 7 7 8 11 11 13 11 12 14 15 17 17 15 12 11 15 15 15 20 22 23 23 30 27 21
36 35 36 35 35 29 26 24 23 27 24 18 15 14 12 10 9 8 8 9 8 11 13 14 12 13 15 14 15 19 19 17 15 14 12 13 18 19 23 24 26 26 25
37 35 32 29 29 27 27 27 26 21 21 19 16 12 9 9 9 10 9 10 10 13 15 14 12 12 15 13 13 18 18 15 15 19 19 17 21 18 19 19 23 28 26
34 32 29 27 27 27 28 26 24 22 20 18 14 12 10 9 10 10 9 8 10 12 15 15 12 15 16 14 10 13 13 13 15 20 20 21 22 22 20 18 18 20 26
32 31 28 29 27 28 26 27 21 20 19 18 15 12 11 11 11 11 9 9 10 10 12 15 13 18 17 15 13 13 13 11 15 20 20 22 23 22 21 18 16 17 21
36 32 30 28 29 27 25 22 21 19 20 19 15 10 10 11 11 11 10 11 11 11 12 14 12 18 16 16 14 11 12 12 14 21 21 22 21 19 17 15 13 15 17
35 29 25 29 29 26 23 21 19 18 18 17 14 11 9 12 12 13 13 14 12 14 15 15 18 17 16 16 17 13 12 12 10 19 20 21 19 18 17 14 13 14 16
31 29 30 30 28 27 24 22 16 15 13 13 12 9 8 13 11 12 13 14 14 14 18 19 19 21 19 16 15 13 13 13 12 16 19 22 19 18 18 15 15 17 17
30 28 28 26 26 25 22 21 17 14 13 11 8 8 7 11 11 11 12 12 14 19 22 21 19 18 16 15 15 15 14 14 13 15 18 21 20 20 18 16 17 17 18
23 28 28 25 24 21 19 19 21 18 14 14 12 9 9 12 12 12 14 18 18 21 19 20 19 16 12 12 10 11 12 12 13 15 17 22 19 15 18 19 17 17 19
26 23 23 20 19 18 16 19 22 23 23 20 15 15 13 14 12 14 20 19 18 15 17 18 18 13 11 9 7 9 11 10 12 14 16 16 17 16 16 17 16 16 17
23 23 19 16 18 18 19 20 22 24 24 22 19 20 16 15 16 18 16 13 16 16 16 16 14 14 9 8 9 9 9 10 11 12 12 13 15 16 15 13 12 11 11
22 21 18 17 20 20 20 21 22 23 24 22 22 20 22 24 25 21 16 12 12 13 15 16 17 13 10 10 10 10 11 10 11 11 11 10 11 12 11 11 11 11 11
18 21 18 18 20 21 20 21 22 23 22 24 22 21 23 28 26 21 14 10 10 12 12 13 14 14 10 8 8 8 7 6 6 6 7 8 9 11 12 13 11 11 12
16 20 21 18 17 18 19 19 21 22 23 24 23 22 22 24 22 14 9 11 10 13 15 15 14 11 9 9 8 7 6 5 4 5 6 8 10 11 14 16 15 16 20
16 23 21 20 16 17 21 18 21 23 24 24 23 22 21 19 15 10 11 14 12 13 14 13 11 10 7 7 6 6 7 6 6 9 11 11 10 13 15 17 19 20 21
22 22 21 21 20 20 23 23 21 23 26 27 25 21 22 19 17 15 15 15 13 12 15 14 12 10 9 8 6 7 7 9 11 10 8 8 12 15 13 12 11 10 8
28 22 20 21 24 21 25 25 27 32 33 29 24 21 21 19 17 14 13 11 9 14 15 14 10 10 7 6 5 4 3 4 7 7 4 5 8 9 4 5 6 8 9
25 27 26 19 25 27 27 33 36 37 34 28 25 24 23 22 21 19 19 20 19 19 18 16 14 13 12 10 8 6 6 6 4 2 2 4 5 6 7 8 8 8 9
Wind_Direction
240 241 242 241 226 220 229 228 223 226 224 232 215 199 192 190 200 202 200 211 223 230 228 228 233 239 239 235 237 240 235 240 233 203 210 185 187 184 172 174 184 186 182
230 241 229 218 213 220 224 223 216 213 213 186 182 180 181 177 179 203 225 233 232 224 225 230 236 239 233 228 230 238 224 225 213 193 183 173 177 185 191 191 192 181 179
212 203 200 208 215 212 200 193 193 182 174 175 176 174 167 174 199 221 238 230 235 238 241 242 237 231 226 219 237 220 208 205 215 204 175 172 164 170 181 184 179 174 173
187 192 201 202 201 192 185 179 171 169 166 162 159 160 178 188 196 205 216 238 243 246 245 238 228 224 215 235 221 205 206 208 199 197 177 165 164 173 185 176 171 175 174
178 188 192 190 187 183 174 174 168 159 154 156 164 169 189 201 195 215 239 253 261 262 247 231 223 217 233 206 207 199 200 194 188 191 183 172 167 171 180 175 166 163 161
183 184 185 183 177 172 165 157 154 152 160 169 182 187 178 193 209 228 245 264 267 245 216 208 219 224 199 201 198 201 205 195 188 191 189 183 179 177 178 185 170 163 160
179 173 170 164 159 160 156 155 159 162 170 183 182 174 185 202 218 239 257 248 230 211 199 189 177 181 191 187 182 188 197 211 217 199 202 199 190 189 185 183 177 175 175
167 162 161 160 156 154 156 159 160 167 174 171 170 185 205 216 228 238 212 193 173 172 167 161 164 169 163 170 179 178 182 182 200 217 217 223 209 191 190 187 184 181 174
157 157 156 154 153 159 162 161 167 165 167 170 182 192 202 216 214 198 187 168 164 163 157 162 164 163 161 169 175 174 169 167 181 200 206 220 199 191 188 187 189 181 183
155 155 156 161 164 162 165 166 164 169 170 180 188 193 197 202 196 183 175 181 176 170 163 166 173 171 168 167 177 172 164 182 193 171 166 172 174 177 184 199 192 188 190
156 156 162 170 166 169 167 168 168 174 179 179 182 182 189 189 187 180 174 187 194 187 187 185 192 173 168 159 171 174 179 176 165 162 168 166 165 176 179 186 205 210 199
156 163 163 159 166 169 168 166 170 174 178 171 176 182 180 180 179 186 190 190 183 186 182 181 184 165 171 171 173 178 176 171 171 166 168 172 176 181 182 192 200 206 209
166 159 161 165 166 167 166 167 170 173 175 173 178 180 178 161 173 174 180 175 168 169 170 170 171 164 169 170 174 172 186 173 171 171 174 174 176 178 178 189 192 198 207
158 158 158 159 161 165 173 175 177 178 179 183 184 186 179 169 178 176 172 168 169 171 168 160 155 159 163 171 171 173 178 179 181 178 174 173 174 175 176 177 185 188 196
152 152 155 162 167 168 173 175 184 188 193 192 192 191 188 181 173 177 182 180 178 175 167 157 157 160 160 167 171 176 178 184 185 187 181 176 181 183 180 185 192 198 209
160 153 159 160 168 170 174 174 177 184 193 196 197 181 174 173 165 166 172 180 177 169 163 158 162 166 170 174 177 179 182 188 190 189 191 184 186 190 191 194 191 195 196
157 160 168 173 173 175 179 183 177 173 175 172 174 184 176 161 150 146 146 144 156 160 164 163 166 168 170 169 174 180 182 189 192 188 191 191 193 192 192 194 198 200 196
161 164 169 170 172 169 165 165 168 161 156 153 143 146 144 149 145 139 145 150 154 164 172 161 159 156 159 177 186 180 178 175 177 181 189 195 198 199 198 194 198 197 201
162 163 156 156 160 158 160 162 162 158 156 153 146 147 143 145 134 130 130 140 149 151 151 160 156 160 161 143 142 143 139 134 152 179 191 194 191 188 184 187 200 219 232
161 159 154 154 154 156 158 160 159 160 159 158 157 153 150 145 137 133 128 132 137 149 154 154 155 163 147 139 125 129 139 142 146 146 146 154 173 193 211 217 215 222 227
177 175 166 167 169 160 152 153 158 160 161 158 156 156 155 145 135 129 123 139 138 135 144 150 159 168 168 166 166 160 158 169 159 169 185 185 198 218 214 215 229 242 257
175 189 179 173 174 170 158 157 159 158 155 152 151 153 159 157 151 147 115 144 143 134 137 156 166 172 171 187 177 156 175 193 204 207 236 248 247 244 238 246 252 260 271
162 169 167 162 154 159 152 145 148 150 145 146 146 149 160 170 171 158 139 148 145 154 156 166 174 171 181 198 185 191 205 215 236 252 251 254 258 258 251 262 266 269 275
168 170 170 167 159 157 154 144 140 143 142 141 142 148 154 165 170 164 157 166 169 175 186 184 191 195 204 211 216 211 224 233 242 251 269 262 248 244 249 249 238 226 240
177 169 169 163 163 159 152 147 144 145 146 148 151 153 159 165 172 183 177 174 179 175 175 185 197 203 204 224 238 250 253 222 237 247 273 259 263 259 254 264 276 289 298
191 183 178 171 173 166 163 156 160 162 162 161 161 164 168 171 164 160 154 147 143 142 142 146 153 151 144 145 152 149 160 170 184 235 289 278 270 279 295 309 316 335 350